#timestamp,LO_Frequency,Hit,StdDev 
1688475615.3,286046999.7,N
1688475635.2,286047000.1,N
1688475655.9,286047000.0,N
1688475675.7,286047002.1,N
1688475695.6,286047000.6,N
1688475715.4,286046999.8,N
1688475735.2,286047000.0,N
1688475755.1,286047000.0,N
1688475756.0,286047000.0,N
1688475775.8,286047000.1,N
1688475795.7,286046999.9,N
1688475815.5,286047001.6,N
1688475835.3,286047002.4,N
1688475855.2,286047002.0,N
1688475875.0,286046999.8,N
1688475875.9,286046999.8,N
1688475895.7,286047002.7,N
1688475915.6,286047002.0,N
1688475935.4,286047001.5,N
1688475955.3,286047002.1,N
1688475975.1,286047004.3,Y
1688475976.0,286047004.3,P
1688475995.8,286047001.9,N
1688476015.7,286046999.9,N
1688476035.5,286047003.8,N
1688476055.4,286047001.7,N
1688476075.2,286047001.5,N
1688476095.0,286047002.1,N
1688476095.9,286047002.1,N
1688476115.8,286047001.4,N
1688476135.6,286047004.4,Y
1688476155.4,286047001.0,P
1688476175.3,286047000.4,N
1688476195.1,286047000.4,N
1688476215.9,286047000.4,N
1688476235.7,286046998.3,N
1688476255.5,286046998.4,N
1688476275.4,286046999.0,N
1688476295.2,286046998.9,N
1688476315.1,286046998.3,N
1688476316.0,286046998.3,N
1688476335.8,286046998.1,N
1688476355.6,286047000.8,N
1688476375.5,286046998.1,N
1688476395.3,286046998.5,N
1688476415.1,286046998.7,N
1688476435.9,286046999.4,N
1688476455.7,286046999.0,N
1688476475.6,286046998.9,N
1688476495.4,286046997.7,N
1688476515.2,286046997.5,N
1688476535.1,286046998.0,N
1688476536.0,286046998.0,N
1688476555.8,286046996.8,N
1688476575.6,286046997.3,N
1688476595.5,286046997.5,N
1688476615.3,286046997.5,N
1688476635.2,286046996.8,N
1688476655.9,286046996.8,N
1688476675.7,286046999.4,N
1688476695.6,286046998.7,N
1688476715.4,286046997.1,N
1688476735.3,286046996.6,Y
1688476755.1,286046998.6,P
1688476756.0,286046998.6,P
1688476775.8,286046999.4,P
1688476795.7,286046998.1,Y
1688476815.5,286047000.4,P
1688476835.4,286046998.1,N
1688476855.2,286047001.0,N
1688476875.0,286046998.2,N
1688476875.9,286046998.2,N
1688476895.8,286047001.1,N
1688476915.6,286047000.5,N
1688476935.4,286047000.5,N
1688476955.3,286047000.9,N
1688476975.1,286046998.3,N
1688476995.9,286046998.9,N
1688477015.7,286047000.8,N
1688477035.5,286046998.2,N
1688477055.4,286047000.9,N
1688477075.2,286047000.5,N
1688477095.0,286047000.8,N
1688477095.9,286047000.8,N
1688477115.8,286046998.2,N
1688477135.6,286047000.6,N
1688477155.5,286047000.8,N
1688477175.3,286047000.6,N
1688477195.1,286047001.0,N
1688477215.9,286047001.1,N
1688477235.7,286047001.0,N
1688477255.6,286047001.0,N
1688477275.4,286047000.4,N
1688477295.2,286046999.8,N
1688477315.1,286047000.1,N
1688477316.0,286047000.1,N
1688477335.8,286047000.1,N
1688477355.7,286047000.9,N
1688477375.5,286047000.1,N
1688477395.3,286047000.3,N
1688477415.2,286047001.1,N
1688477435.0,286047000.7,N
1688477435.9,286047000.7,N
1688477455.8,286047000.8,N
1688477475.6,286047001.0,N
1688477495.4,286047001.2,N
1688477515.3,286047000.5,N
1688477535.1,286047002.3,N
1688477555.9,286047002.8,Y
1688477575.7,286047000.4,P
1688477595.5,286047000.9,P
1688477615.4,286047000.2,N
1688477635.2,286047002.8,Y
1688477655.0,286047001.2,P
1688477655.9,286047001.2,P
1688477675.8,286047001.1,P
1688477695.6,286046998.1,Y
1688477715.5,286046998.7,P
1688477735.3,286047001.0,N
1688477755.1,286047001.0,N
1688477775.9,286047000.3,N
1688477795.7,286047000.4,N
1688477815.6,286047000.5,N
1688477835.4,286047001.0,N
1688477855.2,286047001.1,N
1688477875.1,286047000.9,N
1688477876.0,286047000.9,N
1688477895.8,286047000.4,N
1688477915.6,286047000.2,N
1688477935.5,286047002.8,Y
1688477955.3,286046999.9,P
1688477975.2,286046999.7,N
1688477995.9,286047002.7,P
1688478015.7,286047001.1,N
1688478035.6,286047001.2,N
1688478055.4,286046998.5,N
1688478075.2,286047000.5,N
1688478095.1,286047000.3,N
1688478096.0,286047000.3,N
1688478115.8,286046999.8,N
1688478135.7,286047000.9,N
1688478155.5,286047000.3,N
1688478175.3,286047000.3,N
1688478195.2,286047000.9,N
1688478215.0,286047000.4,N
1688478215.9,286047000.4,N
1688478235.7,286047000.3,N
1688478255.6,286046998.1,N
1688478275.4,286047000.7,N
1688478295.3,286047000.2,N
1688478315.1,286047000.3,N
1688478316.0,286047000.3,N
1688478335.8,286047001.1,N
1688478355.7,286047000.6,N
1688478375.5,286047000.6,N
1688478395.3,286047000.5,N
1688478415.2,286047000.3,N
1688478435.0,286047000.6,N
1688478435.9,286047000.6,N
1688478455.8,286047000.6,N
1688478475.6,286047000.3,N
1688478495.4,286047000.3,N
1688478515.3,286046998.1,N
1688478535.1,286046998.1,N
1688478555.8,286047000.6,N
1688478575.7,286047000.5,N
1688478595.5,286047000.8,N
1688478615.4,286046998.7,N
1688478635.2,286047001.2,N
1688478655.0,286046998.2,N
1688478655.9,286046998.2,N
1688478675.8,286046998.7,N
1688478695.6,286046998.2,N
1688478715.4,286046998.2,N
1688478735.3,286047001.1,N
1688478755.1,286047001.1,N
1688478775.9,286047000.4,N
1688478795.7,286046999.9,N
1688478815.5,286047000.4,N
1688478835.4,286047000.1,N
1688478855.2,286047000.4,N
1688478875.0,286047002.7,N
1688478875.9,286047002.7,N
1688478895.8,286047002.6,N
1688478915.6,286047002.1,N
1688478935.5,286047001.5,N
1688478955.3,286047002.1,N
1688478975.1,286046999.7,N
1688478995.9,286047000.3,N
1688479015.7,286047000.3,N
1688479035.0,286047002.8,N
1688479035.9,286047002.8,N
1688479055.8,286047002.6,N
1688479075.6,286047002.4,N
1688479095.5,286047002.4,N
1688479115.3,286047002.4,N
1688479135.1,286046999.8,N
1688479155.9,286046999.7,N
1688479175.7,286047000.1,N
1688479195.5,286047000.1,N
